Home > Weather > Trenton > Past weeks

Flag for USA Past Weather in Trenton, New Jersey, USA — Yesterday and Last 2 Weeks

Now
76 °F

Clear.


Feels Like: 78 °F
Forecast: 67 / 88 °F
Wind: 8 mph from Southwest

Location: Mercer County Airport

Current Time: May 28, 2016 at 12:12:34 AM

Latest Report: May 27, 2016 at 10:53 PM


Visibility: 10 mi

Pressure: 30.04 "Hg

Humidity: 69%

Dew Point: 65 °F

Location of TrentonLocation

Past Weather in Trenton — Graph

°F

Trenton Temperature Yesterday

Maximum temperature yesterday: 88 °F (at 1:53 PM)
Minimum temperature yesterday: 67 °F (at 5:53 AM)
Average temperature yesterday: 79 °F

High & Low Weather Summary for the Past Weeks

 TemperatureHumidityPressure
High88 °F (May 26, 1:53 PM)100% (May 14, 5:58 AM)30.24 "Hg (May 14, 5:58 AM)
Low40 °F (May 16, 3:53 AM)20% (May 25, 4:53 PM)29.61 "Hg (May 14, 4:53 PM)
Average62 °F63%29.98 "Hg
* Reported May 12 10:53 PM — May 27 10:53 PM, Trenton, Weather by CustomWeather, © 2016

Note: Actual official high and low records may vary slightly from our data, if they occured in-between our weather recording intervals... More about our weather records

Advertising

Trenton Weather History for the Previous 24 Hours

Scroll right to see more
 ConditionsComfort  
Time TempWeatherWind HumidityBarometerVisibility
10:53 PM
Fri, May 27
76 °FClear.8 mph69%30.04 "Hg10 mi
9:53 PM78 °FClear.8 mph66%30.03 "Hg10 mi
8:53 PM82 °FSunny.9 mph58%30.01 "Hg10 mi
7:53 PM83 °FSunny.6 mph55%29.99 "Hg10 mi
6:53 PM87 °FSunny.9 mph48%29.98 "Hg10 mi
5:53 PM87 °FSunny.7 mph50%29.98 "Hg10 mi
4:53 PM88 °FPassing clouds.14 mph48%29.98 "Hg10 mi
3:53 PM88 °FPassing clouds.10 mph48%29.99 "Hg10 mi
2:53 PM88 °FBroken clouds.10 mph45%29.99 "Hg10 mi
1:53 PM88 °FSunny.12 mph46%30.01 "Hg10 mi
12:53 PM87 °FSunny.16 mph50%30.02 "Hg10 mi
11:53 AM84 °FSunny.10 mph55%30.03 "Hg10 mi
10:53 AM82 °FSunny.5 mph60%30.03 "Hg10 mi
9:53 AM79 °FSunny.6 mph65%30.03 "Hg10 mi
8:53 AM76 °FSunny.8 mph69%30.03 "Hg10 mi
7:53 AM71 °FSunny.5 mph78%30.04 "Hg8 mi
6:53 AM68 °FSunny.3 mph78%30.04 "Hg8 mi
5:53 AM67 °FClear.No wind79%30.03 "Hg9 mi
4:53 AM68 °FClear.No wind73%30.04 "Hg10 mi
3:53 AM68 °FPassing clouds.7 mph73%30.03 "Hg10 mi
2:53 AM70 °FPassing clouds.No wind68%30.03 "Hg10 mi
1:53 AM70 °FMostly cloudy.5 mph68%30.02 "Hg10 mi
12:53 AM71 °FClear.5 mph61%30.03 "Hg10 mi
Weather by CustomWeather, © 2016

See weather overviewHow to use our weather pages